Flag for U.S.A. Weather past 2 weeks in Montpelier, Vermont, U.S.A.

Now
68 °F

Partly sunny.


Feels Like: 68 °F
Forecast: 46 / 79 °F
Wind: 10 mph from West

Location: Knapp State Airport

Current Time: May 24, 2015 at 2:03:55 PM

Latest Report: May 24, 2015 at 11:51 AM


Visibility: 10 mi

Pressure: 30.21 "Hg

Humidity: 31%

Dew point: 36 °F

Location of MontpelierLocation

Historic Weather in Montpelier — Graph

°F

Montpelier temperature yesterday

Maximum temperature yesterday: 57 °F (at 5:51 PM)
Minimum temperature yesterday: 33 °F (at 3:51 AM)
Average temperature yesterday: 45 °F

Past Weeks' High & Low Weather Summary

 TemperatureHumidityPressure
High80 °F (May 9, 3:51 PM)100% (May 11, 1:51 AM)30.43 "Hg (May 11, 1:51 AM)
Low32 °F (May 15, 4:51 AM)22% (May 14, 4:51 PM)29.69 "Hg (May 12, 3:51 PM)
Average57 °F62%30.08 "Hg
* Reported May 9 11:51 AM — May 24 11:51 AM, Montpelier, Weather by CustomWeather, © 2015

Note: Actual official high and low records may vary slightly from our data, if they occured in-between our weather recording intervals... More about our weather records

Advertising

Montpelier weather history for previous 24 hours

 ConditionsComfort  
Time TempWeatherWind HumidityBarometerVisibility
11:51 AM
Sun, May 24
68 °FPartly sunny.10 mph31%30.21 "Hg10 mi
10:51 AM65 °FLight rain. Mostly cloudy.10 mph34%30.22 "Hg10 mi
9:51 AM65 °FScattered clouds.7 mph33%30.23 "Hg10 mi
8:51 AM63 °FSunny.6 mph34%30.24 "Hg10 mi
7:51 AM60 °FSunny.7 mph35%30.23 "Hg10 mi
6:51 AM57 °FSunny.3 mph36%30.23 "Hg10 mi
5:51 AM54 °FClear.No wind37%30.22 "Hg10 mi
2:51 AM55 °FPartly cloudy.12 mph31%30.21 "Hg10 mi
1:51 AM55 °FPassing clouds.8 mph30%30.22 "Hg10 mi
12:51 AM51 °FClear.9 mph33%30.23 "Hg10 mi
10:51 PM
Sat, May 23
52 °FClear.6 mph30%30.25 "Hg10 mi
9:51 PM53 °FPassing clouds.5 mph28%30.27 "Hg10 mi
8:51 PM52 °FSunny.6 mph32%30.27 "Hg10 mi
6:51 PM57 °FSunny.7 mph25%30.27 "Hg10 mi
5:51 PM57 °FSunny.8 mph25%30.28 "Hg10 mi
3:51 PM56 °FSunny.10 mph28%30.31 "Hg10 mi
2:51 PM55 °FSunny.16 mph27%30.34 "Hg10 mi
Weather by CustomWeather, © 2015

See weather overviewHow to use our weather pages